Weather History for Conroe, TX

Change the Weather History Date:

Wednesday, May 1, 2013

  Actual Average Record
Temperature  
Mean Temperature 73 °F -  
Max Temperature 84 °F 81 °F 93 °F (2002)
Min Temperature 62 °F 59 °F 43 °F (2005)
Cooling Degree Days 8    
Growing Degree Days 23 (Base 50)    
Moisture  
Dew Point 65 °F    
Average Humidity 82    
Maximum Humidity 100    
Minimum Humidity 51    
Precipitation  
Precipitation 0.00 in - - ()
Sea Level Pressure  
Sea Level Pressure 29.85 in    
Wind  
Wind Speed 1 mph (ESE)    
Max Wind Speed 7 mph    
Max Gust Speed -    
Visibility 9 miles    
Events      
Averages and records for this station are not official NWS values.
T = Trace of Precipitation, MM = Missing Value Source: NWS Daily Summary

Daily Weather History Graph

Daily Weather History Graph

Search for Another Location

Airport:

Trip Planner

Search our weather history database for the weather conditions in past years. The results will help you decide how hot, cold, wet, or windy it might be!

Date:

Astronomy

May. 01, 2013 Rise Set
Actual Time 6:38 AM CDT 7:59 PM CDT
Civil Twilight 6:12 AM CDT 8:25 PM CDT
Nautical Twilight 5:42 AM CDT 8:55 PM CDT
Astronomical Twilight 5:10 AM CDT 9:27 PM CDT
Moon 1:08 AM CDT (5/1) 12:17 PM CDT (5/1)
Length of Visible Light 14h 12m
Length of Day
13h 21m
Waning Gibbous, 59% of the Moon is Illuminated
May 1
Waning Gibbous
May 2
Last Quarter
May 9
New
May 17
First Quarter
May 24
Full

Hourly Weather History & Observations

Time (CDT) Temp. Heat Index Dew Point Humidity Pressure Visibility Wind Dir Wind Speed Gust Speed Precip Events Conditions
1:53 AM 64.0 °F - 63.0 °F 96% 29.82 in 10.0 mi Calm Calm - N/A   Clear
2:53 AM 63.0 °F - 62.1 °F 97% 29.82 in 10.0 mi Calm Calm - N/A   Mostly Cloudy
3:53 AM 64.9 °F - 64.0 °F 97% 29.82 in 10.0 mi Calm Calm - N/A   Overcast
4:53 AM 64.9 °F - 64.0 °F 97% 29.83 in 10.0 mi Calm Calm - N/A   Overcast
5:21 AM 64.4 °F - 64.4 °F 100% 29.83 in 9.0 mi Calm Calm - N/A   Mostly Cloudy
5:44 AM 62.6 °F - 62.6 °F 100% 29.83 in 6.0 mi Calm Calm - N/A   Partly Cloudy
5:53 AM 63.0 °F - 63.0 °F 100% 29.82 in 5.0 mi Calm Calm - N/A   Mostly Cloudy
6:53 AM 64.9 °F - 64.0 °F 97% 29.83 in 6.0 mi Calm Calm - N/A   Overcast
7:15 AM 64.4 °F - 64.4 °F 100% 29.84 in 6.0 mi Variable 3.5 mph - N/A   Scattered Clouds
7:53 AM 66.0 °F - 64.9 °F 96% 29.85 in 7.0 mi Calm Calm - N/A   Mostly Cloudy
8:53 AM 70.0 °F - 66.9 °F 90% 29.87 in 10.0 mi SE 3.5 mph - N/A   Mostly Cloudy
9:09 AM 71.6 °F - 66.2 °F 83% 29.89 in 10.0 mi ESE 4.6 mph - N/A   Mostly Cloudy
10:00 AM 73.4 °F - 66.2 °F 78% 29.89 in 10.0 mi SSE 5.8 mph - N/A   Overcast
10:11 AM 73.4 °F - 66.2 °F 78% 29.90 in 10.0 mi ESE 5.8 mph - N/A   Overcast
11:53 AM 77.0 °F - 66.0 °F 69% 29.88 in 10.0 mi East 4.6 mph - N/A   Mostly Cloudy
12:53 PM 79.0 °F - 64.9 °F 62% 29.87 in 10.0 mi ESE 6.9 mph - N/A   Overcast
1:53 PM 81.0 °F 83.0 °F 66.0 °F 60% 29.86 in 10.0 mi Calm Calm - N/A   Scattered Clouds
2:53 PM 82.0 °F 83.8 °F 64.9 °F 56% 29.85 in 10.0 mi Calm Calm - N/A   Partly Cloudy
3:53 PM 84.0 °F 85.4 °F 64.0 °F 51% 29.83 in 10.0 mi Variable 4.6 mph - N/A   Clear
4:53 PM 82.9 °F 84.0 °F 63.0 °F 51% 29.83 in 10.0 mi Calm Calm - N/A   Mostly Cloudy
5:53 PM 81.0 °F 82.7 °F 64.9 °F 58% 29.82 in 10.0 mi Calm Calm - N/A   Mostly Cloudy
6:53 PM 78.1 °F - 68.0 °F 71% 29.83 in 10.0 mi Calm Calm - N/A   Clear
7:53 PM 75.9 °F - 68.0 °F 76% 29.84 in 10.0 mi Calm Calm - N/A   Mostly Cloudy
8:53 PM 71.1 °F - 69.1 °F 93% 29.85 in 10.0 mi Calm Calm - N/A   Clear
9:53 PM 69.1 °F - 66.9 °F 93% 29.87 in 10.0 mi Calm Calm - N/A   Clear
10:53 PM 72.0 °F - 64.9 °F 78% 29.89 in 10.0 mi Variable 5.8 mph - N/A   Scattered Clouds
11:53 PM 70.0 °F - 64.0 °F 81% 29.91 in 10.0 mi Calm Calm - N/A   Clear